Las Vegas, NV

10:07 AM PST on December 09, 2016 (GMT -0800)
McCarran International

Weather History for KLAS - October, 2012

Change the Weather History Date:

Tuesday, October 16, 2012

  Actual Average Record
Temperature  
Mean Temperature 75 °F 70 °F  
Max Temperature 87 °F 81 °F 96 °F (1991)
Min Temperature 62 °F 58 °F 42 °F (1984)
Degree Days  
Heating Degree Days 0 1  
Month to date heating degree days 8 6  
Since 1 July heating degree days 8 7  
Cooling Degree Days 10 5  
Month to date cooling degree days 176 129  
Year to date cooling degree days 3947 3506  
Growing Degree Days 24 (Base 50)    
Moisture  
Dew Point 43 °F    
Average Humidity 37    
Maximum Humidity 56    
Minimum Humidity 18    
Precipitation  
Precipitation 0.00 in 0.01 in 0.06 in (2015)
Month to date precipitation 0.94 0.11  
Year to date precipitation 4.82 3.17  
Snow  
Snow 0.00 in 0.00 in 0.00 in ()
Month to date snowfall T 0.0  
Since 1 July snowfall T 0.0  
Since 1 September snowfall T 0.0  
Snow Depth 0.00 in    
Sea Level Pressure  
Sea Level Pressure 29.80 in    
Wind  
Wind Speed 6 mph (SSW)    
Max Wind Speed 13 mph    
Max Gust Speed 15 mph    
Visibility 10 miles    
Events      
T = Trace of Precipitation, MM = Missing Value Source: NWS Daily Summary

Daily Weather History Graph

Daily Weather History Graph

Search for Another Location

Airport or City:

Trip Planner

Search our weather history database for the weather conditions in past years. The results will help you decide how hot, cold, wet, or windy it might be!

Date:

Astronomy

Oct. 16, 2012 Rise Set
Actual Time 6:48 AM PDT 6:02 PM PDT
Civil Twilight 6:22 AM PDT 6:28 PM PDT
Nautical Twilight 5:53 AM PDT 6:58 PM PDT
Astronomical Twilight 5:23 AM PDT 7:28 PM PDT
Moon 8:12 AM PDT (10/16) 6:55 PM PDT (10/16)
Length of Visible Light 12h 05m
Length of Day
11h 13m
New Moon, 2% of the Moon is Illuminated
Oct 16
New Moon
Oct 21
First Quarter
Oct 29
Full
Nov 6
Last Quarter
Nov 13
New

Hourly Weather History & Observations

Time (PDT) Temp. Dew Point Humidity Pressure Visibility Wind Dir Wind Speed Gust Speed Precip Events Conditions
12:56 AM 66.9 °F 46.9 °F 49% 29.86 in 10.0 mi South 8.1 mph - N/A   Clear
1:56 AM 64.9 °F 46.0 °F 50% 29.86 in 10.0 mi SSW 8.1 mph - N/A   Clear
2:56 AM 64.4 °F 44.6 °F 49% 29.92 in 10.0 mi SSW 6.9 mph - N/A   Clear
3:56 AM 62.6 °F 46.4 °F 55% 29.91 in 10.0 mi SSW 9.2 mph - N/A   Clear
4:56 AM 62.1 °F 45.0 °F 53% 29.86 in 10.0 mi SSW 10.4 mph - N/A   Partly Cloudy
5:56 AM 63.0 °F 45.0 °F 52% 29.86 in 10.0 mi SSW 5.8 mph - N/A   Partly Cloudy
6:56 AM 62.1 °F 45.0 °F 53% 29.86 in 10.0 mi SSW 8.1 mph - N/A   Clear
7:56 AM 64.9 °F 45.0 °F 48% 29.88 in 10.0 mi SSW 8.1 mph - N/A   Clear
8:56 AM 69.8 °F 46.4 °F 43% 29.93 in 10.0 mi South 9.2 mph - N/A   Clear
9:56 AM 73.0 °F 42.1 °F 33% 29.89 in 10.0 mi SSW 3.5 mph - N/A   Clear
10:56 AM 75.9 °F 42.1 °F 30% 29.88 in 10.0 mi Calm Calm - N/A   Clear
11:56 AM 79.0 °F 39.9 °F 25% 29.85 in 10.0 mi Calm Calm - N/A   Clear
12:56 PM 81.0 °F 37.9 °F 21% 29.81 in 10.0 mi SSW 3.5 mph - N/A   Clear
1:56 PM 82.9 °F 37.9 °F 20% 29.76 in 10.0 mi South 8.1 mph - N/A   Clear
2:56 PM 86.0 °F 37.9 °F 18% 29.73 in 10.0 mi Calm Calm - N/A   Clear
3:56 PM 86.0 °F 37.9 °F 18% 29.70 in 10.0 mi SE 4.6 mph - N/A   Clear
4:56 PM 84.9 °F 39.9 °F 20% 29.69 in 10.0 mi SSE 4.6 mph - N/A   Clear
5:56 PM 84.0 °F 39.9 °F 21% 29.68 in 10.0 mi SSE 3.5 mph - N/A   Clear
6:56 PM 80.1 °F 44.1 °F 28% 29.70 in 10.0 mi South 4.6 mph - N/A   Clear
7:56 PM 78.1 °F 44.1 °F 30% 29.72 in 10.0 mi SSE 4.6 mph - N/A   Clear
8:56 PM 75.0 °F 44.1 °F 33% 29.73 in 10.0 mi SSW 8.1 mph - N/A   Clear
9:56 PM 73.0 °F 46.0 °F 38% 29.74 in 10.0 mi SSW 12.7 mph - N/A   Clear
10:56 PM 73.0 °F 42.1 °F 33% 29.75 in 10.0 mi SSW 5.8 mph - N/A   Clear
11:56 PM 72.0 °F 42.1 °F 34% 29.75 in 10.0 mi SW 8.1 mph - N/A   Clear